Lawton, OK

3:02 PM CDT on April 24, 2017 (GMT -0500)
Lawton-Fort Sill Regional

Weather History for KLAW - February, 2013

Change the Weather History Date:

Monday, February 11, 2013

  Actual Average Record
Temperature  
Mean Temperature 46 °F -  
Max Temperature 57 °F 54 °F 91 °F (2017)
Min Temperature 36 °F 27 °F 1 °F (1980)
Degree Days  
Heating Degree Days 18    
Moisture  
Dew Point 26 °F    
Average Humidity 48    
Maximum Humidity 65    
Minimum Humidity 28    
Precipitation  
Precipitation 0.00 in - - ()
Sea Level Pressure  
Sea Level Pressure 30.12 in    
Wind  
Wind Speed 10 mph (NE)    
Max Wind Speed 16 mph    
Max Gust Speed 18 mph    
Visibility 10 miles    
Events      
Averages and records for this station are not official NWS values.
T = Trace of Precipitation, MM = Missing Value Source: NWS Daily Summary

Daily Weather History Graph

Daily Weather History Graph

Search for Another Location

Airport or City:

Trip Planner

Search our weather history database for the weather conditions in past years. The results will help you decide how hot, cold, wet, or windy it might be!

Date:

Astronomy

Feb. 11, 2013 Rise Set
Actual Time 7:22 AM CST 6:13 PM CST
Civil Twilight 6:56 AM CST 6:39 PM CST
Nautical Twilight 6:27 AM CST 7:09 PM CST
Astronomical Twilight 5:57 AM CST 7:38 PM CST
Moon 7:54 AM CST (2/11) 8:04 PM CST (2/11)
Length of Visible Light 11h 42m
Length of Day
10h 50m
Waxing Crescent, 3% of the Moon is Illuminated
Feb 11
Waxing Crescent
Feb 17
First Quarter
Feb 25
Full
Mar 4
Last Quarter
Mar 11
New

Hourly Weather History & Observations

Time (CST) Temp. Windchill Dew Point Humidity Pressure Visibility Wind Dir Wind Speed Gust Speed Precip Events Conditions
12:53 AM 41.0 °F 35.8 °F 26.1 °F 55% 30.06 in 10.0 mi NE 8.1 mph - N/A   Clear
1:53 AM 39.0 °F 32.8 °F 26.1 °F 60% 30.07 in 10.0 mi NNE 9.2 mph - N/A   Clear
2:53 AM 39.9 °F 33.4 °F 26.1 °F 58% 30.09 in 10.0 mi NNE 10.4 mph - N/A   Clear
3:53 AM 39.0 °F 32.8 °F 26.1 °F 60% 30.11 in 10.0 mi NE 9.2 mph - N/A   Clear
4:53 AM 37.0 °F 29.8 °F 26.1 °F 65% 30.12 in 10.0 mi NNE 10.4 mph - N/A   Clear
5:53 AM 37.0 °F 28.5 °F 25.0 °F 62% 30.14 in 10.0 mi NNE 13.8 mph - N/A   Clear
6:53 AM 36.0 °F 26.7 °F 24.1 °F 62% 30.16 in 10.0 mi NNE 15.0 mph - N/A   Clear
7:53 AM 37.0 °F 28.9 °F 23.0 °F 57% 30.19 in 10.0 mi NE 12.7 mph - N/A   Clear
8:53 AM 39.0 °F 31.0 °F 23.0 °F 53% 30.21 in 10.0 mi NE 13.8 mph - N/A   Clear
9:53 AM 44.1 °F 36.8 °F 23.0 °F 43% 30.22 in 10.0 mi NE 16.1 mph - N/A   Clear
10:53 AM 46.9 °F - 25.0 °F 42% 30.22 in 10.0 mi NE 13.8 mph - N/A   Clear
11:53 AM 50.0 °F - 25.0 °F 38% 30.19 in 10.0 mi NE 13.8 mph - N/A   Clear
12:53 PM 53.1 °F - 26.1 °F 35% 30.15 in 10.0 mi ENE 12.7 mph 18.4 mph N/A   Clear
1:53 PM 55.0 °F - 25.0 °F 31% 30.11 in 10.0 mi ENE 12.7 mph - N/A   Clear
2:53 PM 57.0 °F - 25.0 °F 29% 30.08 in 10.0 mi ENE 13.8 mph 18.4 mph N/A   Clear
3:53 PM 55.9 °F - 24.1 °F 29% 30.08 in 10.0 mi NE 10.4 mph - N/A   Partly Cloudy
4:53 PM 57.0 °F - 24.1 °F 28% 30.07 in 10.0 mi East 8.1 mph - N/A   Scattered Clouds
5:53 PM 55.0 °F - 25.0 °F 31% 30.08 in 10.0 mi East 8.1 mph - N/A   Mostly Cloudy
6:53 PM 51.1 °F - 27.0 °F 39% 30.09 in 10.0 mi East 5.8 mph - N/A   Partly Cloudy
7:53 PM 46.9 °F - 28.0 °F 48% 30.10 in 10.0 mi NE 5.8 mph - N/A   Mostly Cloudy
8:53 PM 46.9 °F - 28.9 °F 50% 30.11 in 10.0 mi Calm Calm - N/A   Mostly Cloudy
9:53 PM 46.0 °F 43.9 °F 30.0 °F 54% 30.10 in 10.0 mi ESE 4.6 mph - N/A   Overcast
10:53 PM 43.0 °F 39.5 °F 28.9 °F 58% 30.08 in 10.0 mi ENE 5.8 mph - N/A   Clear
11:53 PM 43.0 °F 40.3 °F 28.9 °F 58% 30.06 in 10.0 mi NE 4.6 mph - N/A   Clear